Time,TemperatureF,DewpointF,PressureIn,WindDirection,WindDirectionDegrees,WindSpeedMPH,WindSpeedGustMPH,Humidity,HourlyPrecipIn,Conditions,Clouds,dailyrainin,SoftwareType,DateUTC
2013-09-21 00:02:00,54.1,52.7,29.82,South,180,8.0,10.0,95,0.00,,,0.00,meteohub,2013-09-21 05:02:00,
2013-09-21 00:07:00,54.1,52.7,29.82,NW,315,8.0,10.0,95,0.00,,,0.00,meteohub,2013-09-21 05:07:00,
2013-09-21 00:12:00,54.0,52.5,29.81,West,270,8.0,10.0,95,0.00,,,0.00,meteohub,2013-09-21 05:12:00,
2013-09-21 00:17:00,54.1,52.7,29.81,WNW,293,8.0,10.0,95,0.00,,,0.00,meteohub,2013-09-21 05:17:00,
2013-09-21 00:22:00,54.0,52.5,29.81,NW,315,2.0,10.0,95,0.00,,,0.00,meteohub,2013-09-21 05:22:00,
2013-09-21 00:27:00,53.8,52.3,29.81,NW,315,11.0,11.0,95,0.00,,,0.00,meteohub,2013-09-21 05:27:00,
2013-09-21 00:32:00,54.0,52.5,29.81,NW,315,10.0,13.0,95,0.00,,,0.00,meteohub,2013-09-21 05:32:00,
2013-09-21 00:37:00,54.0,52.5,29.81,NW,315,8.0,13.0,95,0.00,,,0.00,meteohub,2013-09-21 05:37:00,
2013-09-21 00:42:00,54.0,52.5,29.81,NW,315,8.0,13.0,95,0.00,,,0.00,meteohub,2013-09-21 05:42:00,
2013-09-21 00:47:00,54.0,52.3,29.82,NW,315,4.0,12.0,94,0.00,,,0.00,meteohub,2013-09-21 05:47:00,
2013-09-21 00:52:00,53.8,52.2,29.81,NW,315,7.0,12.0,94,0.00,,,0.00,meteohub,2013-09-21 05:52:00,
2013-09-21 00:57:00,53.6,52.0,29.82,NW,315,7.0,13.0,94,0.00,,,0.00,meteohub,2013-09-21 05:57:00,
2013-09-21 01:02:00,53.6,52.0,29.81,NW,315,10.0,13.0,94,0.00,,,0.00,meteohub,2013-09-21 06:02:00,
2013-09-21 01:07:00,53.6,52.0,29.81,NW,315,10.0,10.0,94,0.00,,,0.00,meteohub,2013-09-21 06:07:00,
2013-09-21 01:12:00,53.2,52.2,29.82,North,0,5.0,10.0,96,0.00,,,0.00,meteohub,2013-09-21 06:12:00,
2013-09-21 01:17:00,53.2,52.2,29.81,North,0,5.0,10.0,96,0.00,,,0.00,meteohub,2013-09-21 06:17:00,
2013-09-21 01:22:00,53.1,52.0,29.81,NW,315,6.0,10.0,96,0.00,,,0.00,meteohub,2013-09-21 06:22:00,
2013-09-21 01:27:00,53.1,52.2,29.82,North,0,8.0,10.0,97,0.00,,,0.00,meteohub,2013-09-21 06:27:00,
2013-09-21 01:32:00,52.9,52.0,29.81,NW,315,6.0,10.0,97,0.00,,,0.00,meteohub,2013-09-21 06:32:00,
2013-09-21 01:37:00,52.9,52.0,29.82,NW,315,5.0,10.0,97,0.00,,,0.00,meteohub,2013-09-21 06:37:00,
2013-09-21 01:42:00,52.7,51.8,29.81,North,0,7.0,10.0,97,0.00,,,0.00,meteohub,2013-09-21 06:42:00,
2013-09-21 01:47:00,52.7,51.8,29.81,North,0,7.0,10.0,97,0.00,,,0.00,meteohub,2013-09-21 06:47:00,
2013-09-21 01:52:00,52.5,51.6,29.81,North,0,9.0,9.0,97,0.00,,,0.00,meteohub,2013-09-21 06:52:00,
2013-09-21 01:57:00,52.3,51.8,29.81,NW,315,5.0,9.0,98,0.00,,,0.00,meteohub,2013-09-21 06:57:00,
2013-09-21 02:02:00,52.3,51.8,29.81,NW,315,7.0,9.0,98,0.00,,,0.00,meteohub,2013-09-21 07:02:00,
2013-09-21 02:07:00,52.2,51.6,29.81,NW,315,4.0,9.0,98,0.00,,,0.00,meteohub,2013-09-21 07:07:00,
2013-09-21 02:12:00,52.0,51.4,29.81,North,0,4.0,8.0,98,0.00,,,0.00,meteohub,2013-09-21 07:12:00,
2013-09-21 02:17:00,52.0,51.4,29.81,North,0,6.0,11.0,98,0.00,,,0.00,meteohub,2013-09-21 07:17:00,
2013-09-21 02:22:00,51.8,51.3,29.81,NW,315,9.0,11.0,98,0.00,,,0.00,meteohub,2013-09-21 07:22:00,
2013-09-21 02:27:00,51.8,51.3,29.81,NW,315,6.0,11.0,98,0.00,,,0.00,meteohub,2013-09-21 07:27:00,
2013-09-21 02:32:00,51.6,51.3,29.81,North,0,7.0,11.0,99,0.00,,,0.00,meteohub,2013-09-21 07:32:00,
2013-09-21 02:37:00,51.6,51.3,29.81,North,0,5.0,11.0,99,0.00,,,0.00,meteohub,2013-09-21 07:37:00,
2013-09-21 02:42:00,51.4,51.1,29.81,North,0,7.0,8.0,99,0.00,,,0.00,meteohub,2013-09-21 07:42:00,
2013-09-21 02:47:00,51.4,51.1,29.81,North,0,7.0,9.0,99,0.00,,,0.00,meteohub,2013-09-21 07:47:00,
2013-09-21 02:52:00,51.3,50.9,29.81,NW,315,4.0,9.0,99,0.00,,,0.00,meteohub,2013-09-21 07:52:00,
2013-09-21 02:57:00,51.3,50.9,29.81,North,0,6.0,9.0,99,0.00,,,0.00,meteohub,2013-09-21 07:57:00,
2013-09-21 03:02:00,51.1,50.7,29.81,NW,315,8.0,8.0,99,0.00,,,0.00,meteohub,2013-09-21 08:02:00,
2013-09-21 03:07:00,51.1,50.7,29.81,NW,315,8.0,8.0,99,0.00,,,0.00,meteohub,2013-09-21 08:07:00,
2013-09-21 03:12:00,51.1,50.7,29.81,North,0,7.0,8.0,99,0.00,,,0.00,meteohub,2013-09-21 08:12:00,
2013-09-21 03:17:00,50.9,50.5,29.81,NW,315,6.0,9.0,99,0.00,,,0.00,meteohub,2013-09-21 08:17:00,
2013-09-21 03:22:00,50.9,50.5,29.80,East,90,8.0,10.0,99,0.00,,,0.00,meteohub,2013-09-21 08:22:00,
2013-09-21 03:27:00,50.9,50.5,29.80,NW,315,5.0,12.0,99,0.00,,,0.00,meteohub,2013-09-21 08:27:00,
2013-09-21 03:32:00,50.9,50.5,29.80,NW,315,6.0,12.0,99,0.00,,,0.00,meteohub,2013-09-21 08:32:00,
2013-09-21 03:37:00,50.7,50.4,29.81,NW,315,6.0,12.0,99,0.00,,,0.00,meteohub,2013-09-21 08:37:00,
2013-09-21 03:42:00,50.5,50.2,29.81,North,0,4.0,7.0,99,0.00,,,0.00,meteohub,2013-09-21 08:42:00,
2013-09-21 03:47:00,50.5,50.2,29.81,NW,315,8.0,8.0,99,0.00,,,0.00,meteohub,2013-09-21 08:47:00,
2013-09-21 03:52:00,50.5,50.2,29.81,NW,315,6.0,8.0,99,0.00,,,0.00,meteohub,2013-09-21 08:52:00,
2013-09-21 03:58:00,50.5,50.2,29.81,NW,315,8.0,9.0,99,0.00,,,0.00,meteohub,2013-09-21 08:58:00,
2013-09-21 04:03:00,50.5,50.2,29.81,North,0,7.0,9.0,99,0.00,,,0.00,meteohub,2013-09-21 09:03:00,
2013-09-21 04:08:00,50.5,50.2,29.81,NW,315,8.0,9.0,99,0.00,,,0.00,meteohub,2013-09-21 09:08:00,
2013-09-21 04:13:00,50.5,50.2,29.81,North,0,8.0,10.0,99,0.00,,,0.00,meteohub,2013-09-21 09:13:00,
2013-09-21 04:18:00,50.4,50.0,29.81,North,0,7.0,10.0,99,0.00,,,0.00,meteohub,2013-09-21 09:18:00,
2013-09-21 04:23:00,50.4,50.0,29.81,NW,315,5.0,10.0,99,0.00,,,0.00,meteohub,2013-09-21 09:23:00,
2013-09-21 04:28:00,50.2,49.8,29.81,NW,315,6.0,9.0,99,0.00,,,0.00,meteohub,2013-09-21 09:28:00,
2013-09-21 04:33:00,50.2,49.8,29.81,NW,315,7.0,9.0,99,0.00,,,0.00,meteohub,2013-09-21 09:33:00,
2013-09-21 04:38:00,50.2,49.8,29.82,North,0,7.0,9.0,99,0.00,,,0.00,meteohub,2013-09-21 09:38:00,
2013-09-21 04:43:00,50.0,49.6,29.82,North,0,8.0,8.0,99,0.00,,,0.00,meteohub,2013-09-21 09:43:00,
2013-09-21 04:48:00,50.0,49.6,29.82,NW,315,7.0,9.0,99,0.00,,,0.00,meteohub,2013-09-21 09:48:00,
2013-09-21 04:53:00,50.0,49.6,29.82,NW,315,8.0,9.0,99,0.00,,,0.00,meteohub,2013-09-21 09:53:00,
2013-09-21 04:58:00,50.0,49.6,29.82,North,0,6.0,9.0,99,0.00,,,0.00,meteohub,2013-09-21 09:58:00,
2013-09-21 05:03:00,50.0,49.6,29.82,North,0,7.0,9.0,99,0.00,,,0.00,meteohub,2013-09-21 10:03:00,
2013-09-21 05:08:00,49.8,49.5,29.82,NW,315,7.0,9.0,99,0.00,,,0.00,meteohub,2013-09-21 10:08:00,
2013-09-21 05:13:00,49.8,49.5,29.82,North,0,7.0,9.0,99,0.00,,,0.00,meteohub,2013-09-21 10:13:00,
2013-09-21 05:18:00,49.6,49.5,29.82,North,0,5.0,7.0,99,0.00,,,0.00,meteohub,2013-09-21 10:18:00,
2013-09-21 05:23:00,49.6,49.5,29.82,NW,315,4.0,8.0,99,0.00,,,0.00,meteohub,2013-09-21 10:23:00,
2013-09-21 05:28:00,49.6,49.5,29.83,NW,315,8.0,8.0,99,0.00,,,0.00,meteohub,2013-09-21 10:28:00,
2013-09-21 05:33:00,49.6,49.5,29.82,North,0,8.0,8.0,99,0.00,,,0.00,meteohub,2013-09-21 10:33:00,
2013-09-21 05:38:00,49.5,49.3,29.83,North,0,8.0,9.0,99,0.00,,,0.00,meteohub,2013-09-21 10:38:00,
2013-09-21 05:43:00,49.3,49.1,29.83,North,0,6.0,9.0,99,0.00,,,0.00,meteohub,2013-09-21 10:43:00,
2013-09-21 05:49:00,49.3,49.1,29.83,North,0,6.0,9.0,99,0.00,,,0.00,meteohub,2013-09-21 10:49:00,
2013-09-21 05:54:00,49.1,48.9,29.83,NW,315,5.0,8.0,99,0.00,,,0.00,meteohub,2013-09-21 10:54:00,
2013-09-21 05:59:00,49.1,48.9,29.83,NW,315,7.0,8.0,99,0.00,,,0.00,meteohub,2013-09-21 10:59:00,
2013-09-21 06:04:00,49.1,48.9,29.84,NW,315,5.0,6.0,99,0.00,,,0.00,meteohub,2013-09-21 11:04:00,
2013-09-21 06:09:00,49.1,48.9,29.84,NW,315,6.0,7.0,99,0.00,,,0.00,meteohub,2013-09-21 11:09:00,
2013-09-21 06:14:00,49.1,48.9,29.84,NW,315,4.0,8.0,99,0.00,,,0.00,meteohub,2013-09-21 11:14:00,
2013-09-21 06:19:00,49.3,49.1,29.84,West,270,6.0,8.0,99,0.00,,,0.00,meteohub,2013-09-21 11:19:00,
2013-09-21 06:24:00,49.3,49.1,29.84,NW,315,5.0,8.0,99,0.00,,,0.00,meteohub,2013-09-21 11:24:00,
2013-09-21 06:29:00,49.5,49.3,29.84,NW,315,8.0,8.0,99,0.00,,,0.00,meteohub,2013-09-21 11:29:00,
2013-09-21 06:34:00,49.5,49.3,29.84,NW,315,6.0,8.0,99,0.00,,,0.00,meteohub,2013-09-21 11:34:00,
2013-09-21 06:39:00,49.5,49.3,29.85,West,270,6.0,8.0,99,0.00,,,0.00,meteohub,2013-09-21 11:39:00,
2013-09-21 06:44:00,49.6,49.5,29.85,North,0,5.0,8.0,99,0.00,,,0.00,meteohub,2013-09-21 11:44:00,
2013-09-21 06:49:00,49.6,49.5,29.85,West,270,5.0,8.0,99,0.00,,,0.00,meteohub,2013-09-21 11:49:00,
2013-09-21 06:54:00,49.5,49.3,29.85,NW,315,6.0,9.0,99,0.00,,,0.00,meteohub,2013-09-21 11:54:00,
2013-09-21 06:59:00,49.5,49.3,29.85,NW,315,8.0,10.0,99,0.00,,,0.00,meteohub,2013-09-21 11:59:00,
2013-09-21 07:04:00,49.5,49.3,29.85,NW,315,4.0,10.0,99,0.00,,,0.00,meteohub,2013-09-21 12:04:00,
2013-09-21 07:09:00,49.5,49.3,29.85,NW,315,7.0,10.0,99,0.00,,,0.00,meteohub,2013-09-21 12:09:00,
2013-09-21 07:15:00,49.3,49.1,29.85,WNW,293,6.0,9.0,99,0.00,,,0.00,meteohub,2013-09-21 12:15:00,
2013-09-21 07:20:00,49.3,49.1,29.85,NW,315,4.0,9.0,99,0.00,,,0.00,meteohub,2013-09-21 12:20:00,
2013-09-21 07:25:00,49.5,49.3,29.86,North,0,4.0,8.0,99,0.00,,,0.00,meteohub,2013-09-21 12:25:00,
2013-09-21 07:30:00,49.5,49.3,29.86,NW,315,8.0,8.0,99,0.00,,,0.00,meteohub,2013-09-21 12:30:00,
2013-09-21 07:35:00,49.5,49.3,29.86,NW,315,8.0,8.0,99,0.00,,,0.00,meteohub,2013-09-21 12:35:00,
2013-09-21 07:40:00,49.5,49.3,29.86,NW,315,7.0,8.0,99,0.00,,,0.00,meteohub,2013-09-21 12:40:00,
2013-09-21 07:45:00,49.6,49.5,29.86,North,0,5.0,11.0,99,0.00,,,0.00,meteohub,2013-09-21 12:45:00,
2013-09-21 07:50:00,49.6,49.5,29.86,NW,315,3.0,11.0,99,0.00,,,0.00,meteohub,2013-09-21 12:50:00,
2013-09-21 07:55:00,49.8,49.5,29.86,NW,315,7.0,11.0,99,0.00,,,0.00,meteohub,2013-09-21 12:55:00,
2013-09-21 08:00:00,50.0,49.6,29.86,NW,315,3.0,8.0,99,0.00,,,0.00,meteohub,2013-09-21 13:00:00,
2013-09-21 08:05:00,50.2,49.8,29.86,NW,315,4.0,8.0,99,0.00,,,0.00,meteohub,2013-09-21 13:05:00,
2013-09-21 08:10:00,50.2,49.8,29.86,North,0,4.0,8.0,99,0.00,,,0.00,meteohub,2013-09-21 13:10:00,
2013-09-21 08:15:00,50.4,50.0,29.86,North,0,4.0,8.0,99,0.00,,,0.00,meteohub,2013-09-21 13:15:00,
2013-09-21 08:20:00,50.5,50.2,29.86,North,0,5.0,8.0,99,0.00,,,0.00,meteohub,2013-09-21 13:20:00,
2013-09-21 08:25:00,50.7,50.4,29.86,NW,315,7.0,8.0,99,0.00,,,0.00,meteohub,2013-09-21 13:25:00,
2013-09-21 08:30:00,50.9,50.5,29.86,SW,225,7.0,11.0,99,0.00,,,0.00,meteohub,2013-09-21 13:30:00,
2013-09-21 08:35:00,51.1,50.7,29.87,North,0,6.0,11.0,99,0.00,,,0.00,meteohub,2013-09-21 13:35:00,
2013-09-21 08:40:00,51.4,51.1,29.86,NW,315,7.0,11.0,99,0.00,,,0.00,meteohub,2013-09-21 13:40:00,
2013-09-21 08:46:00,51.8,51.3,29.87,NW,315,11.0,11.0,98,0.00,,,0.00,meteohub,2013-09-21 13:46:00,
2013-09-21 08:51:00,52.3,51.8,29.87,NW,315,10.0,11.0,98,0.00,,,0.00,meteohub,2013-09-21 13:51:00,
2013-09-21 08:56:00,52.3,51.8,29.87,NW,315,10.0,11.0,98,0.00,,,0.00,meteohub,2013-09-21 13:56:00,
2013-09-21 09:01:00,52.5,52.0,29.87,NW,315,9.0,14.0,98,0.00,,,0.00,meteohub,2013-09-21 14:01:00,
2013-09-21 09:06:00,52.7,52.2,29.87,North,0,9.0,14.0,98,0.00,,,0.00,meteohub,2013-09-21 14:06:00,
2013-09-21 09:11:00,53.4,52.9,29.87,North,0,10.0,14.0,98,0.00,,,0.00,meteohub,2013-09-21 14:11:00,
2013-09-21 09:16:00,53.6,52.5,29.87,NE,45,6.0,11.0,96,0.00,,,0.00,meteohub,2013-09-21 14:16:00,
2013-09-21 09:21:00,54.1,52.5,29.87,NW,315,8.0,11.0,94,0.00,,,0.00,meteohub,2013-09-21 14:21:00,
2013-09-21 09:26:00,54.7,52.7,29.87,North,0,5.0,11.0,93,0.00,,,0.00,meteohub,2013-09-21 14:26:00,
2013-09-21 09:31:00,55.2,52.9,29.87,NW,315,11.0,11.0,92,0.00,,,0.00,meteohub,2013-09-21 14:31:00,
2013-09-21 09:36:00,55.2,52.3,29.88,North,0,9.0,12.0,90,0.00,,,0.00,meteohub,2013-09-21 14:36:00,
2013-09-21 09:41:00,55.8,52.5,29.88,North,0,10.0,12.0,89,0.00,,,0.00,meteohub,2013-09-21 14:41:00,
2013-09-21 09:46:00,55.6,51.8,29.88,NW,315,12.0,12.0,87,0.00,,,0.00,meteohub,2013-09-21 14:46:00,
2013-09-21 09:51:00,55.4,51.6,29.89,NW,315,7.0,12.0,87,0.00,,,0.00,meteohub,2013-09-21 14:51:00,
2013-09-21 09:56:00,55.2,51.1,29.89,NW,315,8.0,12.0,86,0.00,,,0.00,meteohub,2013-09-21 14:56:00,
2013-09-21 10:01:00,55.6,51.8,29.89,NW,315,8.0,12.0,87,0.00,,,0.00,meteohub,2013-09-21 15:01:00,
2013-09-21 10:06:00,55.8,51.6,29.89,NW,315,13.0,13.0,86,0.00,,,0.00,meteohub,2013-09-21 15:06:00,
2013-09-21 10:11:00,54.9,50.7,29.90,NW,315,8.0,14.0,86,0.00,,,0.00,meteohub,2013-09-21 15:11:00,
2013-09-21 10:16:00,54.7,50.5,29.90,WNW,293,9.0,14.0,86,0.00,,,0.00,meteohub,2013-09-21 15:16:00,
2013-09-21 10:22:00,55.2,51.1,29.89,North,0,11.0,14.0,86,0.00,,,0.00,meteohub,2013-09-21 15:22:00,
2013-09-21 10:27:00,55.9,51.8,29.90,NW,315,11.0,14.0,86,0.00,,,0.00,meteohub,2013-09-21 15:27:00,
2013-09-21 10:32:00,56.3,51.8,29.90,North,0,12.0,14.0,85,0.00,,,0.00,meteohub,2013-09-21 15:32:00,
2013-09-21 10:37:00,56.3,51.8,29.90,NW,315,10.0,14.0,85,0.00,,,0.00,meteohub,2013-09-21 15:37:00,
2013-09-21 10:42:00,56.5,51.4,29.89,NW,315,15.0,15.0,83,0.00,,,0.00,meteohub,2013-09-21 15:42:00,
2013-09-21 10:47:00,56.5,50.7,29.89,NW,315,11.0,15.0,81,0.00,,,0.00,meteohub,2013-09-21 15:47:00,
2013-09-21 10:52:00,57.0,51.3,29.89,NW,315,9.0,15.0,81,0.00,,,0.00,meteohub,2013-09-21 15:52:00,
2013-09-21 10:57:00,56.5,50.7,29.90,NW,315,9.0,15.0,81,0.00,,,0.00,meteohub,2013-09-21 15:57:00,
2013-09-21 11:02:00,56.8,50.7,29.89,NW,315,10.0,12.0,80,0.00,,,0.00,meteohub,2013-09-21 16:02:00,
2013-09-21 11:07:00,57.6,50.7,29.90,North,0,8.0,14.0,78,0.00,,,0.00,meteohub,2013-09-21 16:07:00,
2013-09-21 11:12:00,57.9,50.7,29.89,NW,315,9.0,14.0,77,0.00,,,0.00,meteohub,2013-09-21 16:12:00,
2013-09-21 11:17:00,58.8,50.9,29.89,West,270,8.0,13.0,75,0.00,,,0.00,meteohub,2013-09-21 16:17:00,
2013-09-21 11:22:00,59.4,50.7,29.89,North,0,7.0,13.0,73,0.00,,,0.00,meteohub,2013-09-21 16:22:00,
2013-09-21 11:27:00,59.2,50.2,29.89,NW,315,15.0,15.0,72,0.00,,,0.00,meteohub,2013-09-21 16:27:00,
2013-09-21 11:32:00,58.6,50.4,29.89,NW,315,7.0,15.0,74,0.00,,,0.00,meteohub,2013-09-21 16:32:00,
2013-09-21 11:37:00,58.3,50.0,29.89,North,0,12.0,15.0,74,0.00,,,0.00,meteohub,2013-09-21 16:37:00,
2013-09-21 11:42:00,59.7,51.8,29.89,West,270,8.0,16.0,75,0.00,,,0.00,meteohub,2013-09-21 16:42:00,
2013-09-21 11:48:00,59.2,49.8,29.90,NW,315,8.0,17.0,71,0.00,,,0.00,meteohub,2013-09-21 16:48:00,
2013-09-21 11:53:00,59.0,50.4,29.90,North,0,15.0,17.0,73,0.00,,,0.00,meteohub,2013-09-21 16:53:00,
2013-09-21 11:58:00,59.5,50.9,29.90,West,270,9.0,17.0,73,0.00,,,0.00,meteohub,2013-09-21 16:58:00,
2013-09-21 12:03:00,60.6,50.7,29.90,NW,315,8.0,17.0,70,0.00,,,0.00,meteohub,2013-09-21 17:03:00,
2013-09-21 12:08:00,60.6,50.4,29.90,North,0,8.0,16.0,69,0.00,,,0.00,meteohub,2013-09-21 17:08:00,
2013-09-21 12:13:00,60.4,50.5,29.90,NW,315,7.0,15.0,70,0.00,,,0.00,meteohub,2013-09-21 17:13:00,
2013-09-21 12:18:00,59.9,49.6,29.90,NW,315,8.0,15.0,69,0.00,,,0.00,meteohub,2013-09-21 17:18:00,
2013-09-21 12:23:00,59.9,50.5,29.90,NW,315,11.0,12.0,71,0.00,,,0.00,meteohub,2013-09-21 17:23:00,
2013-09-21 12:28:00,59.9,48.9,29.90,NW,315,6.0,11.0,67,0.00,,,0.00,meteohub,2013-09-21 17:28:00,
2013-09-21 12:33:00,59.5,49.3,29.90,WNW,293,10.0,11.0,69,0.00,,,0.00,meteohub,2013-09-21 17:33:00,
2013-09-21 12:38:00,59.4,49.6,29.90,NW,315,10.0,12.0,70,0.00,,,0.00,meteohub,2013-09-21 17:38:00,
2013-09-21 12:43:00,59.5,49.8,29.90,North,0,11.0,12.0,70,0.00,,,0.00,meteohub,2013-09-21 17:43:00,
2013-09-21 12:48:00,59.7,50.0,29.90,West,270,8.0,14.0,70,0.00,,,0.00,meteohub,2013-09-21 17:48:00,
2013-09-21 12:53:00,59.7,48.7,29.90,West,270,11.0,14.0,67,0.00,,,0.00,meteohub,2013-09-21 17:53:00,
2013-09-21 12:58:00,60.1,49.5,29.90,NW,315,8.0,14.0,68,0.00,,,0.00,meteohub,2013-09-21 17:58:00,
2013-09-21 13:03:00,60.3,49.6,29.89,West,270,9.0,15.0,68,0.00,,,0.00,meteohub,2013-09-21 18:03:00,
2013-09-21 13:08:00,60.1,49.1,29.89,North,0,9.0,15.0,67,0.00,,,0.00,meteohub,2013-09-21 18:08:00,
2013-09-21 13:14:00,59.9,48.9,29.89,North,0,8.0,15.0,67,0.00,,,0.00,meteohub,2013-09-21 18:14:00,
2013-09-21 13:19:00,60.4,50.2,29.89,North,0,8.0,15.0,69,0.00,,,0.00,meteohub,2013-09-21 18:19:00,
2013-09-21 13:24:00,60.3,49.6,29.89,NW,315,9.0,13.0,68,0.00,,,0.00,meteohub,2013-09-21 18:24:00,
2013-09-21 13:29:00,60.3,50.0,29.89,NW,315,8.0,11.0,69,0.00,,,0.00,meteohub,2013-09-21 18:29:00,
2013-09-21 13:34:00,61.0,50.4,29.88,NW,315,10.0,11.0,68,0.00,,,0.00,meteohub,2013-09-21 18:34:00,
2013-09-21 13:39:00,60.6,49.6,29.88,North,0,9.0,11.0,67,0.00,,,0.00,meteohub,2013-09-21 18:39:00,
2013-09-21 13:44:00,61.3,50.4,29.88,West,270,9.0,11.0,67,0.00,,,0.00,meteohub,2013-09-21 18:44:00,
2013-09-21 13:49:00,61.5,49.6,29.88,West,270,9.0,11.0,65,0.00,,,0.00,meteohub,2013-09-21 18:49:00,
2013-09-21 13:54:00,62.1,50.2,29.87,NW,315,9.0,13.0,65,0.00,,,0.00,meteohub,2013-09-21 18:54:00,
2013-09-21 13:59:00,63.0,49.8,29.88,North,0,13.0,18.0,62,0.00,,,0.00,meteohub,2013-09-21 18:59:00,
2013-09-21 14:04:00,63.7,50.4,29.88,North,0,8.0,18.0,62,0.00,,,0.00,meteohub,2013-09-21 19:04:00,
2013-09-21 14:09:00,63.9,50.2,29.88,North,0,14.0,18.0,61,0.00,,,0.00,meteohub,2013-09-21 19:09:00,
2013-09-21 14:14:00,63.5,49.8,29.88,West,270,8.0,18.0,61,0.00,,,0.00,meteohub,2013-09-21 19:14:00,
2013-09-21 14:19:00,64.0,50.4,29.88,North,0,15.0,15.0,61,0.00,,,0.00,meteohub,2013-09-21 19:19:00,
2013-09-21 14:24:00,63.7,50.0,29.88,North,0,16.0,17.0,61,0.00,,,0.00,meteohub,2013-09-21 19:24:00,
2013-09-21 14:29:00,63.7,50.0,29.88,North,0,12.0,17.0,61,0.00,,,0.00,meteohub,2013-09-21 19:29:00,
2013-09-21 14:35:00,62.8,49.1,29.88,West,270,8.0,17.0,61,0.00,,,0.00,meteohub,2013-09-21 19:35:00,
2013-09-21 14:40:00,63.3,50.0,29.87,WNW,293,11.0,17.0,62,0.00,,,0.00,meteohub,2013-09-21 19:40:00,
2013-09-21 14:45:00,63.3,49.6,29.87,NW,315,9.0,17.0,61,0.00,,,0.00,meteohub,2013-09-21 19:45:00,
2013-09-21 14:50:00,63.9,50.5,29.87,SW,225,13.0,16.0,62,0.00,,,0.00,meteohub,2013-09-21 19:50:00,
2013-09-21 14:55:00,63.7,50.0,29.87,North,0,8.0,16.0,61,0.00,,,0.00,meteohub,2013-09-21 19:55:00,
2013-09-21 15:00:00,63.9,50.5,29.87,SW,225,12.0,16.0,62,0.00,,,0.00,meteohub,2013-09-21 20:00:00,
2013-09-21 15:05:00,64.2,50.9,29.87,North,0,10.0,13.0,62,0.00,,,0.00,meteohub,2013-09-21 20:05:00,
2013-09-21 15:10:00,64.2,50.9,29.86,NW,315,11.0,13.0,62,0.00,,,0.00,meteohub,2013-09-21 20:10:00,
2013-09-21 15:15:00,64.2,50.5,29.86,NW,315,11.0,16.0,61,0.00,,,0.00,meteohub,2013-09-21 20:15:00,
2013-09-21 15:20:00,64.0,50.4,29.86,WNW,293,11.0,16.0,61,0.00,,,0.00,meteohub,2013-09-21 20:20:00,
2013-09-21 15:25:00,63.0,49.8,29.86,North,0,10.0,16.0,62,0.00,,,0.00,meteohub,2013-09-21 20:25:00,
2013-09-21 15:30:00,63.3,50.0,29.86,NW,315,10.0,14.0,62,0.00,,,0.00,meteohub,2013-09-21 20:30:00,
2013-09-21 15:35:00,64.0,50.7,29.86,North,0,8.0,14.0,62,0.00,,,0.00,meteohub,2013-09-21 20:35:00,
2013-09-21 15:40:00,64.2,50.5,29.86,NW,315,14.0,14.0,61,0.00,,,0.00,meteohub,2013-09-21 20:40:00,
2013-09-21 15:45:00,63.9,50.2,29.86,NW,315,12.0,15.0,61,0.00,,,0.00,meteohub,2013-09-21 20:45:00,
2013-09-21 15:50:00,63.7,50.0,29.86,North,0,10.0,15.0,61,0.00,,,0.00,meteohub,2013-09-21 20:50:00,
2013-09-21 15:55:00,64.2,50.9,29.85,North,0,11.0,15.0,62,0.00,,,0.00,meteohub,2013-09-21 20:55:00,
2013-09-21 16:01:00,64.2,50.5,29.85,West,270,6.0,12.0,61,0.00,,,0.00,meteohub,2013-09-21 21:01:00,
2013-09-21 16:06:00,64.4,50.7,29.84,North,0,8.0,11.0,61,0.00,,,0.00,meteohub,2013-09-21 21:06:00,
2013-09-21 16:11:00,64.4,50.7,29.85,West,270,8.0,12.0,61,0.00,,,0.00,meteohub,2013-09-21 21:11:00,
2013-09-21 16:16:00,64.6,50.4,29.85,North,0,5.0,12.0,60,0.00,,,0.00,meteohub,2013-09-21 21:16:00,
2013-09-21 16:21:00,64.6,51.3,29.84,West,270,8.0,12.0,62,0.00,,,0.00,meteohub,2013-09-21 21:21:00,
2013-09-21 16:26:00,64.6,50.4,29.85,NW,315,9.0,11.0,60,0.00,,,0.00,meteohub,2013-09-21 21:26:00,
2013-09-21 16:31:00,64.6,50.4,29.85,NW,315,12.0,12.0,60,0.00,,,0.00,meteohub,2013-09-21 21:31:00,
2013-09-21 16:36:00,64.2,50.0,29.85,West,270,10.0,12.0,60,0.00,,,0.00,meteohub,2013-09-21 21:36:00,
2013-09-21 16:41:00,64.4,50.2,29.84,West,270,8.0,12.0,60,0.00,,,0.00,meteohub,2013-09-21 21:41:00,
2013-09-21 16:46:00,64.4,50.2,29.84,West,270,11.0,12.0,60,0.00,,,0.00,meteohub,2013-09-21 21:46:00,
2013-09-21 16:51:00,64.6,50.4,29.85,North,0,8.0,11.0,60,0.00,,,0.00,meteohub,2013-09-21 21:51:00,
2013-09-21 16:56:00,64.2,50.0,29.85,West,270,6.0,11.0,60,0.00,,,0.00,meteohub,2013-09-21 21:56:00,
2013-09-21 17:01:00,64.6,50.4,29.85,West,270,8.0,11.0,60,0.00,,,0.00,meteohub,2013-09-21 22:01:00,
2013-09-21 17:06:00,64.4,50.7,29.84,North,0,6.0,9.0,61,0.00,,,0.00,meteohub,2013-09-21 22:06:00,
2013-09-21 17:12:00,64.4,50.7,29.84,West,270,4.0,9.0,61,0.00,,,0.00,meteohub,2013-09-21 22:12:00,
2013-09-21 17:17:00,64.2,50.5,29.85,NW,315,8.0,10.0,61,0.00,,,0.00,meteohub,2013-09-21 22:17:00,
2013-09-21 17:22:00,64.2,50.5,29.85,West,270,6.0,10.0,61,0.00,,,0.00,meteohub,2013-09-21 22:22:00,
2013-09-21 17:27:00,64.4,51.1,29.85,NW,315,4.0,9.0,62,0.00,,,0.00,meteohub,2013-09-21 22:27:00,
2013-09-21 17:32:00,64.2,50.9,29.85,NW,315,8.0,8.0,62,0.00,,,0.00,meteohub,2013-09-21 22:32:00,
2013-09-21 17:37:00,64.2,50.9,29.85,NW,315,3.0,10.0,62,0.00,,,0.00,meteohub,2013-09-21 22:37:00,
2013-09-21 17:42:00,64.0,50.7,29.85,NW,315,4.0,10.0,62,0.00,,,0.00,meteohub,2013-09-21 22:42:00,
2013-09-21 17:47:00,64.0,50.7,29.85,West,270,5.0,8.0,62,0.00,,,0.00,meteohub,2013-09-21 22:47:00,
2013-09-21 17:52:00,63.7,50.4,29.85,North,0,6.0,8.0,62,0.00,,,0.00,meteohub,2013-09-21 22:52:00,
2013-09-21 17:57:00,63.5,50.7,29.85,SW,225,5.0,8.0,63,0.00,,,0.00,meteohub,2013-09-21 22:57:00,
2013-09-21 18:02:00,63.1,50.4,29.85,North,0,8.0,8.0,63,0.00,,,0.00,meteohub,2013-09-21 23:02:00,
2013-09-21 18:07:00,62.8,49.6,29.86,NW,315,4.0,9.0,62,0.00,,,0.00,meteohub,2013-09-21 23:07:00,
2013-09-21 18:12:00,62.6,49.8,29.85,North,0,4.0,9.0,63,0.00,,,0.00,meteohub,2013-09-21 23:12:00,
2013-09-21 18:17:00,62.4,50.5,29.86,NW,315,4.0,9.0,65,0.00,,,0.00,meteohub,2013-09-21 23:17:00,
2013-09-21 18:22:00,62.2,50.4,29.85,NW,315,5.0,8.0,65,0.00,,,0.00,meteohub,2013-09-21 23:22:00,
2013-09-21 18:27:00,62.1,50.5,29.86,West,270,2.0,8.0,66,0.00,,,0.00,meteohub,2013-09-21 23:27:00,
2013-09-21 18:33:00,62.1,50.5,29.86,NW,315,2.0,7.0,66,0.00,,,0.00,meteohub,2013-09-21 23:33:00,
2013-09-21 18:38:00,61.7,50.2,29.86,North,0,2.0,5.0,66,0.00,,,0.00,meteohub,2013-09-21 23:38:00,
2013-09-21 18:43:00,61.2,50.2,29.86,North,0,3.0,4.0,67,0.00,,,0.00,meteohub,2013-09-21 23:43:00,
2013-09-21 18:48:00,60.6,50.4,29.86,North,0,3.0,4.0,69,0.00,,,0.00,meteohub,2013-09-21 23:48:00,
2013-09-21 18:53:00,60.1,50.2,29.86,North,0,2.0,4.0,70,0.00,,,0.00,meteohub,2013-09-21 23:53:00,
2013-09-21 18:58:00,59.7,50.4,29.86,NE,45,0.0,4.0,71,0.00,,,0.00,meteohub,2013-09-21 23:58:00,
2013-09-21 19:03:00,59.4,50.4,29.86,North,0,0.0,4.0,72,0.00,,,0.00,meteohub,2013-09-22 00:03:00,
2013-09-21 19:08:00,59.0,50.0,29.86,NE,45,2.0,4.0,72,0.00,,,0.00,meteohub,2013-09-22 00:08:00,
2013-09-21 19:13:00,58.8,50.5,29.86,North,0,2.0,3.0,74,0.00,,,0.00,meteohub,2013-09-22 00:13:00,
2013-09-21 19:18:00,58.8,50.5,29.86,North,0,2.0,2.0,74,0.00,,,0.00,meteohub,2013-09-22 00:18:00,
2013-09-21 19:23:00,58.8,50.5,29.86,NW,315,2.0,2.0,74,0.00,,,0.00,meteohub,2013-09-22 00:23:00,
2013-09-21 19:29:00,58.8,50.5,29.86,North,0,2.0,2.0,74,0.00,,,0.00,meteohub,2013-09-22 00:29:00,
2013-09-21 19:34:00,58.8,50.5,29.86,North,0,2.0,2.0,74,0.00,,,0.00,meteohub,2013-09-22 00:34:00,
2013-09-21 19:39:00,58.6,50.4,29.87,North,0,2.0,2.0,74,0.00,,,0.00,meteohub,2013-09-22 00:39:00,
2013-09-21 19:44:00,58.6,50.4,29.86,NW,315,2.0,2.0,74,0.00,,,0.00,meteohub,2013-09-22 00:44:00,
2013-09-21 19:49:00,58.5,50.2,29.86,North,0,2.0,2.0,74,0.00,,,0.00,meteohub,2013-09-22 00:49:00,
2013-09-21 19:54:00,58.3,50.0,29.87,North,0,0.0,2.0,74,0.00,,,0.00,meteohub,2013-09-22 00:54:00,
2013-09-21 19:59:00,57.9,49.6,29.87,NE,45,0.0,2.0,74,0.00,,,0.00,meteohub,2013-09-22 00:59:00,
2013-09-21 20:04:00,57.4,49.1,29.87,NE,45,2.0,2.0,74,0.00,,,0.00,meteohub,2013-09-22 01:04:00,
2013-09-21 20:09:00,56.7,49.5,29.88,NW,315,2.0,2.0,77,0.00,,,0.00,meteohub,2013-09-22 01:09:00,
2013-09-21 20:14:00,56.1,49.3,29.87,NE,45,1.0,4.0,78,0.00,,,0.00,meteohub,2013-09-22 01:14:00,
2013-09-21 20:19:00,55.8,48.9,29.88,NE,45,3.0,4.0,78,0.00,,,0.00,meteohub,2013-09-22 01:19:00,
2013-09-21 20:24:00,55.6,49.1,29.88,NE,45,2.0,4.0,79,0.00,,,0.00,meteohub,2013-09-22 01:24:00,
2013-09-21 20:29:00,55.2,49.5,29.88,NW,315,2.0,4.0,81,0.00,,,0.00,meteohub,2013-09-22 01:29:00,
2013-09-21 20:34:00,54.9,49.1,29.88,NW,315,1.0,4.0,81,0.00,,,0.00,meteohub,2013-09-22 01:34:00,
2013-09-21 20:39:00,54.7,48.9,29.88,NE,45,2.0,5.0,81,0.00,,,0.00,meteohub,2013-09-22 01:39:00,
2013-09-21 20:44:00,54.5,49.1,29.88,East,90,3.0,5.0,82,0.00,,,0.00,meteohub,2013-09-22 01:44:00,
2013-09-21 20:50:00,54.3,48.9,29.88,North,0,1.0,4.0,82,0.00,,,0.00,meteohub,2013-09-22 01:50:00,
2013-09-21 20:55:00,54.1,48.7,29.88,North,0,3.0,4.0,82,0.00,,,0.00,meteohub,2013-09-22 01:55:00,
2013-09-21 21:00:00,54.3,48.9,29.88,East,90,3.0,4.0,82,0.00,,,0.00,meteohub,2013-09-22 02:00:00,
2013-09-21 21:05:00,54.5,49.1,29.87,NE,45,4.0,5.0,82,0.00,,,0.00,meteohub,2013-09-22 02:05:00,
2013-09-21 21:10:00,54.9,49.5,29.87,NE,45,6.0,6.0,82,0.00,,,0.00,meteohub,2013-09-22 02:10:00,
2013-09-21 21:15:00,54.9,49.1,29.87,NE,45,4.0,6.0,81,0.00,,,0.00,meteohub,2013-09-22 02:15:00,
2013-09-21 21:20:00,54.9,49.1,29.87,NE,45,4.0,6.0,81,0.00,,,0.00,meteohub,2013-09-22 02:20:00,
2013-09-21 21:25:00,54.9,49.1,29.88,NE,45,4.0,6.0,81,0.00,,,0.00,meteohub,2013-09-22 02:25:00,
2013-09-21 21:30:00,54.9,49.1,29.88,NE,45,3.0,5.0,81,0.00,,,0.00,meteohub,2013-09-22 02:30:00,
2013-09-21 21:35:00,54.9,49.1,29.88,NE,45,4.0,5.0,81,0.00,,,0.00,meteohub,2013-09-22 02:35:00,
2013-09-21 21:40:00,54.9,49.1,29.88,NE,45,4.0,6.0,81,0.00,,,0.00,meteohub,2013-09-22 02:40:00,
2013-09-21 21:45:00,54.7,48.9,29.88,NE,45,4.0,6.0,81,0.00,,,0.00,meteohub,2013-09-22 02:45:00,
2013-09-21 21:50:00,54.7,48.9,29.88,East,90,6.0,6.0,81,0.00,,,0.00,meteohub,2013-09-22 02:50:00,
2013-09-21 21:55:00,54.7,48.9,29.88,NE,45,4.0,6.0,81,0.00,,,0.00,meteohub,2013-09-22 02:55:00,
2013-09-21 22:00:00,54.7,48.9,29.88,NE,45,4.0,6.0,81,0.00,,,0.00,meteohub,2013-09-22 03:00:00,
2013-09-21 22:06:00,54.7,48.6,29.88,NE,45,4.0,6.0,80,0.00,,,0.00,meteohub,2013-09-22 03:06:00,
2013-09-21 22:11:00,54.7,48.4,29.88,NE,45,2.0,6.0,79,0.00,,,0.00,meteohub,2013-09-22 03:11:00,
2013-09-21 22:16:00,54.7,48.4,29.88,East,90,2.0,6.0,79,0.00,,,0.00,meteohub,2013-09-22 03:16:00,
2013-09-21 22:21:00,54.5,48.4,29.89,NE,45,3.0,6.0,80,0.00,,,0.00,meteohub,2013-09-22 03:21:00,
2013-09-21 22:26:00,54.3,48.2,29.89,NE,45,2.0,4.0,80,0.00,,,0.00,meteohub,2013-09-22 03:26:00,
2013-09-21 22:31:00,54.1,48.4,29.88,NE,45,2.0,4.0,81,0.00,,,0.00,meteohub,2013-09-22 03:31:00,
2013-09-21 22:36:00,54.0,48.2,29.89,NE,45,3.0,4.0,81,0.00,,,0.00,meteohub,2013-09-22 03:36:00,
2013-09-21 22:41:00,54.0,48.2,29.89,NE,45,3.0,4.0,81,0.00,,,0.00,meteohub,2013-09-22 03:41:00,
2013-09-21 22:46:00,54.0,48.2,29.89,NE,45,3.0,4.0,81,0.00,,,0.00,meteohub,2013-09-22 03:46:00,
2013-09-21 22:51:00,54.0,48.2,29.89,NE,45,3.0,4.0,81,0.00,,,0.00,meteohub,2013-09-22 03:51:00,
2013-09-21 22:56:00,54.0,48.2,29.88,NE,45,4.0,4.0,81,0.00,,,0.00,meteohub,2013-09-22 03:56:00,
2013-09-21 23:01:00,54.0,48.2,29.88,NE,45,2.0,4.0,81,0.00,,,0.00,meteohub,2013-09-22 04:01:00,
2013-09-21 23:02:00,54.0,48.2,29.88,NE,45,2.0,4.0,81,0.00,,,0.00,meteohub,2013-09-22 04:02:00,
2013-09-21 23:03:00,54.0,48.2,29.88,NE,45,2.0,4.0,81,0.00,,,0.00,meteohub,2013-09-22 04:03:00,
2013-09-21 23:05:00,54.0,48.2,29.88,NE,45,2.0,4.0,81,0.00,,,0.00,meteohub,2013-09-22 04:05:00,
2013-09-21 23:07:00,54.0,48.2,29.89,NE,45,2.0,4.0,81,0.00,,,0.00,meteohub,2013-09-22 04:07:00,
2013-09-21 23:12:00,53.6,47.8,29.89,NE,45,3.0,4.0,81,0.00,,,0.00,meteohub,2013-09-22 04:12:00,
2013-09-21 23:17:00,53.6,47.8,29.88,NE,45,2.0,3.0,81,0.00,,,0.00,meteohub,2013-09-22 04:17:00,
2013-09-21 23:22:00,53.4,48.4,29.89,NE,45,2.0,3.0,83,0.00,,,0.00,meteohub,2013-09-22 04:22:00,
2013-09-21 23:28:00,53.2,48.2,29.89,East,90,5.0,5.0,83,0.00,,,0.00,meteohub,2013-09-22 04:28:00,
2013-09-21 23:33:00,53.1,48.0,29.89,NE,45,6.0,6.0,83,0.00,,,0.00,meteohub,2013-09-22 04:33:00,
2013-09-21 23:38:00,53.1,48.4,29.89,NE,45,4.0,6.0,84,0.00,,,0.00,meteohub,2013-09-22 04:38:00,
2013-09-21 23:43:00,53.4,48.7,29.88,NE,45,5.0,6.0,84,0.00,,,0.00,meteohub,2013-09-22 04:43:00,
2013-09-21 23:48:00,53.6,48.2,29.89,East,90,5.0,7.0,82,0.00,,,0.00,meteohub,2013-09-22 04:48:00,
2013-09-21 23:53:00,53.6,48.2,29.89,East,90,3.0,7.0,82,0.00,,,0.00,meteohub,2013-09-22 04:53:00,
2013-09-21 23:58:00,53.6,48.2,29.89,East,90,4.0,7.0,82,0.00,,,0.00,meteohub,2013-09-22 04:58:00,